{"data":{"norad_id":69501,"epoch":"2026-09-19T08:03:40.599648Z","epoch_age_seconds":126003,"freshness":"FRESH","line1":"1 69501U 26131Z   26262.33588657  .00040380  00000+0  12456-2 0  9991","line2":"2 69501  97.2874 283.2895 0000488 214.6592 145.4619 15.33466449 15467","mean_motion":15.33466449,"eccentricity":4.88e-5,"inclination_deg":97.2874,"raan_deg":283.2895,"arg_perigee_deg":214.6592,"mean_anomaly_deg":145.4619,"bstar":0.0012456,"rev_number":1546,"period_min":93.904891165963,"perigee_km":465.14538961037,"apogee_km":465.81332656692,"semimajor_km":6843.6163580886,"source":"CELESTRAK","updated_at":"2026-09-20T09:00:44.210135Z"}}